Location: Stoke Bliss
(52.2667°N, 2.5167°W)
Time: 14:33:00
(UTC+00:00)

Envisat - Pass Details

Date: 06 December 2021
Orbit: 764 x 766 km, 98.2° (Epoch: 28 January)

Event Time Altitude Azimuth Distance (km) Brightness Sun altitude
Rises 17:15:58 0° 201° (SSW) 3,222 6.9 -11.1°
Reaches altitude 10° 17:18:40 10° 214° (SW) 2,301 6.4 -11.5°
Maximum altitude 17:22:47 25° 269° (W) 1,531 5.5 -12.1°
Drops below altitude 10° 17:26:56 10° 323° (NW) 2,316 5.7 -12.7°
Sets 17:29:40 0° 337° (NNW) 3,248 6.3 -13.1°
